Location: La Junie
(44.7428°N, 2.1773°E)
Time: 08:17:49
(UTC+00:00)

Cosmos 2297 Rocket - Pass Details

Date: 15 May 2026
Orbit: 839 x 842 km, 71.0° (Epoch: 5 June)

Event Time Altitude Azimuth Distance (km) Brightness Sun altitude
Exits shadow 23:28:06 73° 139° (SE) 878 2.0 -26.0°
Maximum altitude 23:28:21 75° 112° (ESE) 871 2.1 -26.1°
Drops below altitude 10° 23:33:59 10° 29° (NNE) 2,464 5.3 -26.1°
Sets 23:36:27 0° 28° (NNE) 3,403 6.3 -26.2°
